Meerawa, Australia

3:58 AM AEST on June 24, 2017 (GMT +1000)
Meerawa

Weather History for 94287 - March, 2013

Change the Weather History Date:

Wednesday, March 20, 2013

  Actual Average Record
Temperature  
Mean Temperature 80 °F -  
Max Temperature 87 °F 85 °F - ()
Min Temperature 73 °F 72 °F - ()
Cooling Degree Days 15    
Growing Degree Days 30 (Base 50)    
Moisture  
Dew Point 73 °F    
Average Humidity 77    
Maximum Humidity 100    
Minimum Humidity 54    
Precipitation  
Precipitation 0.02 in 0.39 in - ()
Sea Level Pressure  
Sea Level Pressure 29.83 in    
Wind  
Wind Speed 5 mph ()    
Max Wind Speed 14 mph    
Max Gust Speed -    
Visibility 7.6 miles    
Events      
T = Trace of Precipitation, MM = Missing Value Source: Averaged Metar Reports

Daily Weather History Graph

Daily Weather History Graph

Search for Another Location

Airport or City:

Trip Planner

Search our weather history database for the weather conditions in past years. The results will help you decide how hot, cold, wet, or windy it might be!

Date:

Astronomy

Mar. 20, 2013 Rise Set
Actual Time 6:20 AM AEST 6:27 PM AEST
Civil Twilight 5:59 AM AEST 6:49 PM AEST
Nautical Twilight 5:34 AM AEST 7:14 PM AEST
Astronomical Twilight 5:08 AM AEST 7:39 PM AEST
Moon 1:07 PM AEST (3/20) No Moon Set
Length of Visible Light 12h 50m
Length of Day
12h 07m
First Quarter, 53% of the Moon is Illuminated
Mar 20
First Quarter
Mar 27
Full
Apr 3
Last Quarter
Apr 10
New
Apr 18
First Quarter

Hourly Weather History & Observations

Time (AEST) Temp. Heat Index Dew Point Humidity Pressure Visibility Wind Dir Wind Speed Gust Speed Precip Events Conditions
12:00 AM 79 °F - 75 °F 83% 29.89 in - West 4.6 mph - -  
12:00 AM 78.8 °F - 75.2 °F 89% 29.89 in 6.2 mi West 4.6 mph - N/A   Scattered Clouds
12:30 AM 78.8 °F - 75.2 °F 89% 29.86 in 6.2 mi WSW 4.6 mph - N/A   Scattered Clouds
1:00 AM 78 °F - 74 °F 86% 29.87 in - West 4.6 mph - -  
1:00 AM 78.8 °F - 75.2 °F 89% 29.86 in 6.2 mi West 4.6 mph - N/A   Partly Cloudy
1:30 AM 75.2 °F - 75.2 °F 100% 29.86 in 6.2 mi West 1.2 mph - N/A   Partly Cloudy
2:00 AM 77.0 °F - 73.4 °F 89% 29.83 in 6.2 mi South 4.6 mph - N/A   Partly Cloudy
2:30 AM 75.2 °F - 75.2 °F 100% 29.83 in 6.2 mi West 2.3 mph - N/A   Partly Cloudy
3:00 AM 76 °F - 74 °F 94% 29.83 in - West 3.5 mph - -  
3:00 AM 75.2 °F - 75.2 °F 100% 29.83 in 6.2 mi West 3.5 mph - N/A   Partly Cloudy
3:30 AM 75.2 °F - 73.4 °F 94% 29.83 in 6.2 mi Calm Calm - N/A   Partly Cloudy
4:00 AM 76 °F - 74 °F 90% 29.83 in - SSW 3.5 mph - -  
4:00 AM 75.2 °F - 73.4 °F 94% 29.80 in 6.2 mi SSW 3.5 mph - N/A   Partly Cloudy
4:30 AM 75.2 °F - 73.4 °F 94% 29.83 in 6.2 mi South 5.8 mph - N/A   Partly Cloudy
5:00 AM 75.2 °F - 73.4 °F 94% 29.83 in 6.2 mi West 3.5 mph - N/A   Partly Cloudy
5:30 AM 75.2 °F - 73.4 °F 94% 29.83 in 6.2 mi West 8.1 mph - N/A   Partly Cloudy
6:00 AM 75 °F - 73 °F 91% 29.84 in 19 mi West 3.5 mph - -   Partly Cloudy
6:00 AM 75.2 °F - 73.4 °F 94% 29.83 in 6.2 mi West 3.5 mph - N/A   Partly Cloudy
6:30 AM 75.2 °F - 73.4 °F 94% 29.83 in 6.2 mi Calm Calm - N/A   Partly Cloudy
7:00 AM 76 °F - 72 °F 83% 29.87 in - WSW 5.8 mph - -  
7:00 AM 77.0 °F - 71.6 °F 83% 29.86 in 6.2 mi WSW 5.8 mph - N/A   Partly Cloudy
7:30 AM 77.0 °F - 71.6 °F 83% 29.86 in 6.2 mi West 6.9 mph - N/A   Partly Cloudy
8:00 AM 78.8 °F - 73.4 °F 83% 29.89 in 6.2 mi West 6.9 mph - N/A   Scattered Clouds
8:30 AM 80.6 °F 86.2 °F 75.2 °F 84% 29.89 in 6.2 mi WNW 5.8 mph - N/A   Scattered Clouds
9:00 AM 81 °F - 74 °F 73% 29.89 in 19 mi WNW 4.6 mph - -   Partly Cloudy
9:00 AM 80.6 °F 85.4 °F 73.4 °F 79% 29.89 in 6.2 mi WNW 4.6 mph - N/A   Scattered Clouds
9:30 AM 82.4 °F 88.2 °F 73.4 °F 74% 29.89 in 6.2 mi SE 6.9 mph - N/A   Mostly Cloudy
10:00 AM 83 °F - 72 °F 62% 29.90 in - SSE 9.2 mph - -  
10:00 AM 82.4 °F 87.2 °F 71.6 °F 70% 29.89 in 6.2 mi SSE 9.2 mph - N/A   Scattered Clouds
10:30 AM 84.2 °F 89.6 °F 71.6 °F 66% 29.89 in 6.2 mi SE 6.9 mph - N/A   Scattered Clouds
11:00 AM 84.2 °F 90.9 °F 73.4 °F 70% 29.86 in 6.2 mi SE 13.8 mph - N/A   Scattered Clouds
11:30 AM 84.2 °F 90.9 °F 73.4 °F 70% 29.86 in 6.2 mi SE 13.8 mph - N/A   Scattered Clouds
12:00 PM 85 °F - 72 °F 58% 29.85 in 19 mi SE 12.7 mph - -   Partly Cloudy
12:00 PM 84.2 °F 90.9 °F 73.4 °F 70% 29.83 in 6.2 mi SE 12.7 mph - N/A   Scattered Clouds
12:30 PM 86.0 °F 91.8 °F 71.6 °F 62% 29.83 in 6.2 mi ESE 10.4 mph - N/A   Scattered Clouds
1:00 PM 87 °F - 73 °F 54% 29.82 in - NNE 8.1 mph - -  
1:00 PM 87.8 °F 95.6 °F 73.4 °F 62% 29.80 in 6.2 mi NNE 8.1 mph - N/A   Scattered Clouds
1:30 PM 86.0 °F 93.4 °F 73.4 °F 66% 29.80 in 6.2 mi NE 10.4 mph - N/A   Scattered Clouds
2:00 PM 86.0 °F 93.4 °F 73.4 °F 66% 29.77 in 6.2 mi ENE 9.2 mph - N/A   Partly Cloudy
2:30 PM 87.8 °F 95.6 °F 73.4 °F 62% 29.77 in 6.2 mi ENE 10.4 mph - N/A   Partly Cloudy
3:00 PM 87 °F - 74 °F 58% 29.77 in 19 mi NE 9.2 mph - -   Partly Cloudy
3:00 PM 87.8 °F 95.6 °F 73.4 °F 62% 29.77 in 6.2 mi NE 9.2 mph - N/A   Partly Cloudy
3:30 PM 86.0 °F 93.4 °F 73.4 °F 66% 29.77 in 6.2 mi ENE 8.1 mph - N/A   Partly Cloudy
4:00 PM 86 °F - 73 °F 56% 29.77 in - NE 8.1 mph - -  
4:00 PM 86.0 °F 93.4 °F 73.4 °F 66% 29.74 in 6.2 mi NE 8.1 mph - N/A   Partly Cloudy
4:30 PM 86.0 °F 93.4 °F 73.4 °F 66% 29.74 in 6.2 mi ENE 5.8 mph - N/A   Partly Cloudy
5:00 PM 86.0 °F 93.4 °F 73.4 °F 66% 29.74 in 6.2 mi North 5.8 mph - N/A   Partly Cloudy
5:30 PM 86.0 °F 93.4 °F 73.4 °F 66% 29.77 in 6.2 mi WNW 6.9 mph - N/A   Partly Cloudy
6:00 PM 84 °F - 73 °F 63% 29.78 in 19 mi WNW 6.9 mph - -   Partly Cloudy
6:00 PM 84.2 °F 90.9 °F 73.4 °F 70% 29.77 in 6.2 mi WNW 6.9 mph - N/A   Scattered Clouds
6:30 PM 82.4 °F 88.2 °F 73.4 °F 74% 29.77 in 6.2 mi WSW 5.8 mph - N/A   Scattered Clouds
7:00 PM 81 °F - 73 °F 72% 29.81 in - South 4.6 mph - -  
7:00 PM 80.6 °F 85.4 °F 73.4 °F 79% 29.80 in 6.2 mi South 4.6 mph - N/A   Scattered Clouds
7:30 PM 80.6 °F 85.4 °F 73.4 °F 79% 29.80 in 6.2 mi South 5.8 mph - N/A   Scattered Clouds
8:00 PM 80.6 °F 86.2 °F 75.2 °F 84% 29.80 in 6.2 mi SSE 9.2 mph - N/A   Mostly Cloudy
8:30 PM 82.4 °F 89.5 °F 75.2 °F 79% 29.83 in 6.2 mi SSE 8.1 mph - N/A   Mostly Cloudy
9:00 PM 81 °F - 73 °F 71% 29.84 in 16 mi South 5.8 mph - -   Partly Cloudy
9:00 PM 80.6 °F 85.4 °F 73.4 °F 79% 29.83 in 6.2 mi South 5.8 mph - N/A   Scattered Clouds
9:30 PM 80.6 °F 85.4 °F 73.4 °F 79% 29.83 in 6.2 mi South 8.1 mph - N/A   Mostly Cloudy
10:00 PM 80 °F - 73 °F 73% 29.86 in - South 6.9 mph - -  
10:00 PM 80.6 °F 85.4 °F 73.4 °F 79% 29.86 in 6.2 mi South 6.9 mph - N/A   Mostly Cloudy
10:30 PM 80.6 °F 84.6 °F 71.6 °F 74% 29.86 in 6.2 mi South 5.8 mph - N/A   Mostly Cloudy
11:00 PM 78.8 °F - 71.6 °F 78% 29.83 in 6.2 mi South 8.1 mph - N/A   Scattered Clouds
11:30 PM 78.8 °F - 71.6 °F 78% 29.83 in 6.2 mi South 6.9 mph - N/A   Mostly Cloudy